DateTimeUTC,F1_A11,F1_S11,BsB_S11,BsG_S11,BsR_S11,BbsB_S11,BbsG_S11,BbsR_S11,BaB_A11,BaG_A11,BaR_A11,Tu_S11,T_S11,Uu_S11,U_S11,P_S11,T1_A11
2021-08-09T15:00:00Z,00000200,20000000,,,,,,,-000.63,-000.29,0000.31,19.2,25.7,09.4,06.3,0670.3,31.0
2021-08-09T15:01:00Z,00000200,20000000,,,,,,,0000.47,0000.10,-000.19,19.2,25.7,09.4,06.3,0670.3,31.0
2021-08-09T15:02:00Z,00000200,20000000,,,,,,,0000.42,0000.28,0000.13,19.2,25.7,09.4,06.3,0670.3,31.0
2021-08-09T15:03:00Z,00000200,60000000,,,,,,,-000.34,0000.01,0000.03,19.2,25.7,09.4,06.3,0670.3,31.0
2021-08-09T15:04:00Z,00000200,40000000,0000.59,0000.33,0000.34,0000.16,0000.00,0000.09,-000.24,0000.07,0000.15,19.3,25.6,09.4,06.5,0671.2,31.0
2021-08-09T15:05:00Z,00000200,00000000,0000.44,0000.58,0000.21,-000.55,0000.30,-000.11,0000.09,-000.15,-000.63,19.4,25.5,09.5,06.5,0671.3,31.0
2021-08-09T15:06:00Z,00000200,00000000,0000.60,0000.58,0000.21,0000.31,0000.23,-000.10,0000.23,0000.03,0000.47,19.4,25.5,09.5,06.5,0671.3,31.0
2021-08-09T15:07:00Z,00000200,00000000,0001.01,0000.29,0000.35,-000.38,0000.28,0000.02,-000.36,0000.09,-000.13,19.4,25.5,09.6,06.6,0671.3,31.0
2021-08-09T15:08:00Z,00000200,00000000,0000.11,0000.46,-000.14,-000.41,0000.19,-000.14,0000.34,-000.04,0000.60,19.4,25.5,09.6,06.6,0671.3,31.0
2021-08-09T15:09:00Z,00000200,00000000,0000.50,0000.59,0000.25,0000.01,0000.13,-000.08,0000.42,-000.01,0000.39,19.4,25.5,09.7,06.7,0671.3,31.0
2021-08-09T15:10:00Z,00000200,00000000,0001.17,0000.53,0000.34,0000.07,0000.28,-000.07,-001.01,-000.31,-000.86,19.4,25.5,09.5,06.6,0671.3,31.0
2021-08-09T15:11:00Z,00000200,00000000,0000.63,0000.05,-000.05,0000.39,0000.01,-000.15,0000.53,0000.40,0000.45,19.4,25.5,09.7,06.7,0671.3,31.0
2021-08-09T15:12:00Z,00000200,00000000,0000.65,0000.28,0000.39,-000.03,0000.20,0000.02,-000.14,0000.09,0000.28,19.4,25.5,09.6,06.6,0671.3,31.0
2021-08-09T15:13:00Z,00000200,00000000,0000.32,0000.61,-000.00,-000.43,0000.36,-000.26,-000.38,-000.25,-000.14,19.4,25.5,09.6,06.6,0671.3,31.0
2021-08-09T15:14:00Z,00000200,00000000,0000.54,0000.36,0000.23,-000.22,0000.11,0000.07,0000.20,-000.20,0000.16,19.4,25.5,09.7,06.7,0671.3,31.0
2021-08-09T15:15:00Z,00000200,00000000,0000.31,0000.36,0000.29,0000.26,0000.21,-000.24,-000.01,-000.05,-000.19,19.4,25.5,09.6,06.6,0671.3,31.0
2021-08-09T15:16:00Z,00000200,00000000,0001.12,0000.68,0000.46,-000.06,0000.22,0000.01,0000.05,0000.08,-000.21,19.4,25.5,09.6,06.6,0671.3,31.0
2021-08-09T15:17:00Z,00000200,00000000,0000.63,0000.67,0000.29,0000.42,0000.38,-000.11,-000.05,-000.01,0000.40,19.4,25.5,09.6,06.6,0671.3,31.0
2021-08-09T15:18:00Z,00000200,00000000,0001.31,0000.80,0000.02,-000.39,0000.32,0000.03,-000.07,-000.04,-000.12,19.4,25.5,09.6,06.6,0671.3,31.0
2021-08-09T15:19:00Z,00000200,00000000,0000.62,0000.58,0000.34,0000.06,0000.33,-000.14,0000.28,0000.35,0000.25,19.4,25.5,09.6,06.7,0671.3,31.0
2021-08-09T15:20:00Z,00000200,00000000,0000.69,0000.94,0000.45,0000.63,0000.30,0000.11,-000.35,0000.01,0000.28,19.4,25.5,09.6,06.6,0671.3,31.0
2021-08-09T15:21:00Z,00000200,00000000,0000.24,0000.71,0000.28,-000.20,0000.14,-000.26,0000.32,0000.06,0000.38,19.4,25.5,09.7,06.7,0671.3,31.0
2021-08-09T15:22:00Z,00000200,00000000,0000.64,0000.67,0000.31,0000.18,-000.03,0000.04,0000.53,0000.32,0000.14,19.4,25.5,09.8,06.8,0671.3,31.1
2021-08-09T15:23:00Z,00000200,00000000,0000.40,0000.68,0000.34,0000.10,0000.10,0000.01,-000.56,-000.20,-000.37,19.4,25.5,09.7,06.7,0671.3,31.0
2021-08-09T15:24:00Z,00000200,00000000,0000.17,0000.80,0000.17,0000.17,0000.25,-000.01,0000.14,0000.37,0000.87,19.4,25.5,09.7,06.7,0671.3,31.0
2021-08-09T15:25:00Z,00000200,00000000,0000.87,0000.78,0000.39,-000.05,0000.28,0000.02,-000.11,0000.09,-000.52,19.4,25.5,09.7,06.7,0671.3,31.0
2021-08-09T15:26:00Z,00000200,00000000,0000.73,0000.86,0000.04,0000.19,-000.22,0000.13,0000.32,-000.37,0000.15,19.4,25.5,09.7,06.7,0671.3,31.0
2021-08-09T15:27:00Z,00000200,00000000,0001.07,0000.74,0000.26,-000.23,0000.34,-000.18,-000.28,0000.02,0000.16,19.4,25.5,09.8,06.8,0671.3,31.0
2021-08-09T15:28:00Z,00000200,00000000,0001.16,0000.61,0000.35,-000.16,0000.19,-000.33,0000.09,0000.10,0000.06,19.4,25.5,09.7,06.7,0671.2,31.0
2021-08-09T15:29:00Z,00000200,00000000,0000.43,0000.83,0000.42,0000.27,-000.17,0000.23,0000.16,0000.15,-000.04,19.4,25.5,09.7,06.7,0671.2,31.1
2021-08-09T15:30:00Z,00000200,00000000,0001.57,0000.89,0000.80,0000.11,0000.25,0000.15,-000.14,0000.08,0000.32,19.5,25.5,09.7,06.8,0671.2,31.0
2021-08-09T15:31:00Z,00000200,00000000,0001.23,0000.61,0000.52,-000.13,0000.15,-000.03,0000.48,0000.46,0000.34,19.4,25.5,09.8,06.8,0671.2,31.1
2021-08-09T15:32:00Z,00000200,00000000,0001.48,0000.79,0000.56,-000.25,0000.09,-000.00,0000.42,0000.16,0000.02,19.4,25.5,09.8,06.8,0671.2,31.0
2021-08-09T15:33:00Z,00000200,00000000,0000.87,0000.70,0000.23,-000.14,0000.22,0000.07,0000.21,-000.01,0000.21,19.4,25.5,09.9,06.9,0671.2,31.0
2021-08-09T15:34:00Z,00000200,00000000,0000.93,0000.79,0000.18,0000.18,0000.23,-000.16,-000.42,-000.21,0000.07,19.4,25.5,09.9,06.8,0671.2,31.0
2021-08-09T15:35:00Z,00000200,00000000,0000.83,0000.93,0000.68,0000.29,0000.20,0000.09,0000.07,-000.02,-000.19,19.4,25.5,09.8,06.8,0671.2,31.0
2021-08-09T15:36:00Z,00000200,00000000,0000.65,0001.22,0000.62,-000.24,0000.24,-000.12,-000.31,-000.30,0000.08,19.4,25.5,09.8,06.8,0671.1,31.0
2021-08-09T15:37:00Z,00000200,00000000,-000.09,0000.63,0000.69,-000.15,0000.33,0000.19,-000.35,0000.24,-000.41,19.4,25.5,09.6,06.7,0671.1,31.0
2021-08-09T15:38:00Z,00000200,00000000,0000.88,0000.69,0000.63,0000.70,0000.03,-000.03,0000.16,-000.42,0000.04,19.4,25.5,09.5,06.6,0671.0,31.0
2021-08-09T15:39:00Z,00000200,00000000,0001.13,0000.66,0000.50,-000.09,0000.44,0000.13,0000.50,0000.71,-000.03,19.4,25.5,09.4,06.5,0671.1,31.1
2021-08-09T15:40:00Z,00000200,00000000,0000.83,0000.82,0000.55,-000.32,0000.21,-000.00,-000.37,-000.21,0000.27,19.4,25.5,09.6,06.6,0671.1,31.0
2021-08-09T15:41:00Z,00000200,00000000,0001.02,0001.02,0000.51,0000.19,0000.26,-000.10,0000.76,0000.62,0000.62,19.5,25.5,09.6,06.6,0671.1,31.1
2021-08-09T15:42:00Z,00000200,00000000,0001.08,0000.94,0000.67,0000.54,0000.18,0000.33,0000.14,0000.48,0000.52,19.5,25.5,09.7,06.7,0671.2,31.0
2021-08-09T15:43:00Z,00000200,00000000,0000.47,0000.82,0000.54,0000.43,0000.12,0000.02,-000.01,-000.17,-000.26,19.5,25.5,09.7,06.7,0671.0,31.0
2021-08-09T15:44:00Z,00000200,00000000,0000.06,0000.98,0000.67,-000.48,0000.36,0000.04,0000.83,0000.38,0000.64,19.5,25.5,09.8,06.8,0671.2,31.0
2021-08-09T15:45:00Z,00000200,00000000,0000.80,0000.58,0000.33,-000.19,0000.11,-000.20,0000.25,0000.20,0000.33,19.5,25.5,09.8,06.8,0671.2,31.0
2021-08-09T15:46:00Z,00000200,00000000,0000.53,0000.94,0000.25,-000.00,0000.31,0000.08,0000.01,0000.07,0000.17,19.4,25.5,09.9,06.9,0671.2,31.0
2021-08-09T15:47:00Z,00000200,00000000,0000.31,0000.63,0000.44,-000.28,0000.27,-000.04,-000.09,0000.54,-000.16,19.4,25.5,10.0,06.9,0671.2,31.0
2021-08-09T15:48:00Z,00000200,00000000,0000.87,0000.62,0000.44,0000.40,0000.24,-000.12,0000.28,-000.06,0000.21,19.4,25.5,09.9,06.9,0671.2,31.0
2021-08-09T15:49:00Z,00000200,00000000,0000.64,0000.65,0000.14,-000.01,0000.12,0000.27,-000.23,-000.15,0000.29,19.4,25.5,09.9,06.9,0671.2,31.0
2021-08-09T15:50:00Z,00000200,00000000,0000.61,0000.52,0000.36,0000.12,0000.07,0000.01,0000.53,0000.43,0000.00,19.4,25.5,09.9,06.9,0671.2,31.0
2021-08-09T15:51:00Z,00000200,00000000,0000.49,0000.51,0000.18,0000.06,0000.27,-000.07,-000.18,0000.09,0000.24,19.4,25.5,10.0,06.9,0671.2,31.0
2021-08-09T15:52:00Z,00000200,00000000,0001.53,0000.42,0000.45,0000.10,0000.00,0000.23,-000.02,-000.29,-000.23,19.4,25.5,10.0,07.0,0671.2,31.0
2021-08-09T15:53:00Z,00000200,00000000,0001.04,0000.91,0000.30,0000.17,0000.33,0000.05,-000.08,0000.10,0000.28,19.4,25.5,10.1,07.0,0671.1,31.1
2021-08-09T15:54:00Z,00000200,00000000,0000.01,0000.47,0000.28,-000.17,0000.39,0000.03,-000.04,-000.21,-000.54,19.4,25.5,10.0,07.0,0671.1,31.0
2021-08-09T15:55:00Z,00000200,00000000,0000.83,0000.44,0000.54,0000.11,0000.31,-000.20,-000.24,0000.10,0000.16,19.4,25.5,09.9,06.9,0671.1,31.0
2021-08-09T15:56:00Z,00000200,00000000,0000.57,0000.45,0000.42,0000.04,0000.29,0000.08,0000.15,0000.03,0000.43,19.5,25.5,09.8,06.8,0671.1,31.0
2021-08-09T15:57:00Z,00000200,40000000,,,,,,,-000.00,0000.11,-000.28,19.5,25.5,09.4,06.5,0671.1,31.0
2021-08-09T15:58:00Z,00000200,60000000,,,,,,,-000.21,-000.28,0000.01,19.3,25.6,09.9,06.7,0670.1,31.0
2021-08-09T15:59:00Z,00000200,20000000,,,,,,,-000.19,-000.43,0000.23,19.2,25.7,09.9,06.7,0670.2,31.0
